EW1675 Weather Reports


time (UTC)temp
F
wind
direction
speed
knots
gust
knots
rain 1hr
in
rain 24hr
in
rain mn
in
humidity
%
barometer
mb
20260504234000 73 175 0.9 6.1 0.00 0.00 0.00 44 1009.9
20260504233042 74 164 1.7 6.1 0.00 0.00 0.00 43 1010.0
20260504232021 74 151 1.7 7.0 0.00 0.00 0.00 43 1009.9
20260504231000 74 150 1.7 7.8 0.00 0.00 0.00 42 1010.0
20260504230042 74 143 2.6 7.8 0.00 0.00 0.00 42 1009.9
20260504225000 75 165 2.6 8.7 0.00 0.00 0.00 41 1009.9
20260504224103 75 147 1.7 8.7 0.00 0.00 0.00 40 1009.8
20260504223000 75 158 1.7 7.0 0.00 0.00 0.00 40 1009.7
20260504222021 75 159 1.7 5.2 0.00 0.00 0.00 40 1009.8
20260504221043 75 169 2.6 10.4 0.00 0.00 0.00 40 1009.9
20260504220022 75 159 2.6 12.2 0.00 0.00 0.00 40 1009.7
20260504215001 76 161 1.7 6.1 0.00 0.00 0.00 41 1009.6
20260504214001 76 156 2.6 7.0 0.00 0.00 0.00 39 1009.8
20260504213001 76 168 1.7 7.0 0.00 0.00 0.00 40 1009.7
20260504212000 76 153 3.5 9.6 0.00 0.00 0.00 37 1009.8
20260504211022 77 167 2.6 6.1 0.00 0.00 0.00 37 1009.7
20260504210002 77 156 1.7 7.0 0.00 0.00 0.00 37 1009.5
20260504205043 77 161 1.7 7.8 0.00 0.00 0.00 36 1009.6
20260504204043 78 148 2.6 8.7 0.00 0.00 0.00 37 1009.7
20260504203001 78 148 1.7 9.6 0.00 0.00 0.00 38 1009.8
20260504202001 78 158 2.6 9.6 0.00 0.00 0.00 36 1009.9
20260504201001 78 138 1.7 7.8 0.00 0.00 0.00 38 1009.9
20260504200001 79 150 3.5 9.6 0.00 0.00 0.00 35 1010.1
20260504195021 79 169 1.7 7.0 0.00 0.00 0.00 34 1010.3
20260504194001 79 155 2.6 6.1 0.00 0.00 0.00 36 1010.3
20260504193022 79 155 1.7 7.8 0.00 0.00 0.00 36 1010.4
20260504192043 79 164 2.6 8.7 0.00 0.00 0.00 35 1010.6
20260504191001 79 173 1.7 9.6 0.00 0.00 0.00 34 1010.8
20260504190001 79 162 1.7 6.1 0.00 0.00 0.00 37 1010.9
20260504185022 78 159 1.7 7.8 0.00 0.00 0.00 38 1011.2
20260504184022 78 157 2.6 9.6 0.00 0.00 0.00 37 1011.4
20260504183043 78 149 1.7 10.4 0.00 0.00 0.00 39 1011.5
20260504182001 77 158 1.7 6.1 0.00 0.00 0.00 36 1011.7
20260504181001 77 161 1.7 7.8 0.00 0.00 0.00 36 1011.9
20260504180001 78 157 2.6 8.7 0.00 0.00 0.00 41 1012.1
20260504175002 77 133 0.9 6.1 0.00 0.00 0.00 38 1012.0
20260504174001 76 159 0.9 5.2 0.00 0.00 0.00 37 1012.2
20260504173001 76 152 1.7 7.8 0.00 0.00 0.00 40 1012.6
20260504172022 76 148 1.7 8.7 0.00 0.00 0.00 39 1012.6
20260504171023 76 158 1.7 7.0 0.00 0.00 0.00 39 1012.9
20260504151043 70 170 0.9 5.2 0.00 0.00 0.00 43 1014.2
20260504141001 65 164 0.9 3.5 0.00 0.00 0.00 50 1014.3
20260504081024 48 135 0.0 0.9 0.00 0.00 0.00 67 1015.6
20260504080105 48 135 0.0 0.9 0.00 0.00 0.00 68 1015.6
20260504050023 44 0 0.0 0.0 0.00 0.00 0.00 75 1016.1
20260504045105 44 0 0.0 0.0 0.00 0.00 0.00 75 1016.1
20260504044003 44 0 0.0 0.0 0.00 0.00 0.00 75 1016.2
20260504043023 44 0 0.0 0.0 0.00 0.00 0.00 74 1016.1
20260504042002 44 0 0.0 0.0 0.00 0.00 0.00 74 1016.0
20260504041023 44 0 0.0 0.0 0.00 0.00 0.00 73 1015.9
20260504040023 44 0 0.0 0.0 0.00 0.00 0.00 73 1015.8
20260504035023 44 0 0.0 0.0 0.00 0.00 0.00 73 1016.1
20260504034003 45 0 0.0 0.0 0.00 0.00 0.00 72 1016.1
20260504033002 45 0 0.0 0.0 0.00 0.00 0.00 71 1016.1
20260504032044 45 0 0.0 0.0 0.00 0.00 0.00 71 1016.1
20260504031002 46 0 0.0 0.0 0.00 0.00 0.00 70 1015.8
20260504030002 46 0 0.0 0.0 0.00 0.00 0.00 69 1015.8
20260504025024 47 0 0.0 0.0 0.00 0.00 0.00 68 1015.7
20260504024023 47 0 0.0 0.0 0.00 0.00 0.00 67 1015.6
20260504023002 48 0 0.0 0.0 0.00 0.00 0.00 66 1015.6
20260504022002 48 0 0.0 0.0 0.00 0.00 0.00 64 1015.6
20260504021002 49 0 0.0 0.0 0.00 0.00 0.00 62 1015.6
20260504020023 49 0 0.0 0.0 0.00 0.00 0.00 62 1015.4
20260504015024 50 0 0.0 0.0 0.00 0.00 0.00 60 1015.3
20260504014002 51 0 0.0 0.0 0.00 0.00 0.00 58 1015.3
20260504013002 52 0 0.0 0.0 0.00 0.00 0.00 56 1015.2
20260504012002 52 0 0.0 0.0 0.00 0.00 0.00 55 1015.1
20260504011003 53 0 0.0 0.0 0.00 0.00 0.00 53 1015.1
20260504010002 54 0 0.0 0.0 0.00 0.00 0.00 51 1015.1
20260504005045 55 0 0.0 0.0 0.00 0.00 0.00 49 1015.1
20260504004003 56 0 0.0 0.0 0.00 0.00 0.00 49 1015.0
20260504003023 57 0 0.0 0.0 0.00 0.00 0.00 47 1014.8
20260504002002 58 0 0.0 0.0 0.00 0.00 0.00 46 1014.8
20260504001004 58 0 0.0 0.0 0.00 0.00 0.00 44 1014.8
20260504000003 59 0 0.0 0.0 0.00 0.00 0.00 41 1014.6
20260503235003 60 0 0.0 0.0 0.00 0.00 0.00 38 1014.5